Weather in Podsosnovo

Russia / Altai Krai     53°22′23″N   78°55′09″E
temp.,
°C
wind,
m/s
gust,
m/s
humid.,
%
clouds,
%
prec.,
mm/h
press.,
hPa
HPBL,
m
28 july, wed
wed2801:00+16n2353100 0.0 101163
04:00+15wnw2258100 0.0 101024
07:00+15nw2260100 0.0 101049
10:00+19sw224954 0.0 1011513
13:00+18w455196 0.0 1011715
16:00+23wsw243398 0.0 10092789
19:00+21ssw233959 0.0 1009767
22:00+16sse335312 0.0 101032
29 july, thu
thu2901:00+16s46517 0.0 100995
04:00+13sse47591 0.0 100993
07:00+13s495670 0.0 1009163
10:00+21s563929 0.0 1008498
13:00+24w3434100 0.0 10071855
16:00+24nw5437100 0.0 10071907
19:00+18n4770100 0.6 1008236
22:00+15n4676100 0.1 100996
30 july, fri
fri3001:00+13n47680 0.1 1010103
04:00+11n34720 0.0 101151
07:00+11nne23763 0.0 101239
10:00+18nnw23475 0.0 1013572
13:00+22wnw44310 0.0 10141985
16:00+24wnw45305 0.0 10132217
19:00+23wnw333045 0.0 10132029
22:00+17nnw11469 0.0 101511
31 july, sat
sat3101:00+16se224727 0.0 101414
04:00+14sse4552100 0.0 101462
07:00+15sse4952100 0.0 1014157
10:00+21s6936100 0.0 1013447
13:00+26ssw6825100 0.0 10121658
16:00+25wsw5732100 0.0 1011880
19:00+23e1143100 0.0 101020
22:00+19ese335133 0.0 101032
1 august, sun
sun101:00+17se455442 0.0 101064
04:00+19sse354330 0.0 100993
07:00+17ssw34545 0.0 100949
10:00+22wsw44445 0.0 1009441
13:00+26w443750 0.0 10081176
16:00+28w5533100 0.0 10081723
19:00+28w44344 0.0 10071784
22:00+21nw47575 0.0 1008114